Change the Weather History Date:

Tuesday, January 14, 2014

  Actual Average Record
Temperature  
Mean Temperature 44 °F -  
Max Temperature 53 °F 40 °F 70 °F (2007)
Min Temperature 36 °F 24 °F 10 °F (1988)
Degree Days  
Heating Degree Days 20    
Moisture  
Dew Point 43 °F    
Average Humidity 89    
Maximum Humidity 97    
Minimum Humidity 55    
Precipitation  
Precipitation 0.32 in - - ()
Sea Level Pressure  
Sea Level Pressure 29.84 in    
Wind  
Wind Speed 6 mph (WSW)    
Max Wind Speed 13 mph    
Max Gust Speed -    
Visibility 6 miles    
Events Fog , Rain    
Averages and records for this station are not official NWS values.
T = Trace of Precipitation, MM = Missing Value Source: NWS Daily Summary

Daily Weather History Graph

Daily Weather History Graph

Search for Another Location

Airport or City:

Trip Planner

Search our weather history database for the weather conditions in past years. The results will help you decide how hot, cold, wet, or windy it might be!

Date:

Astronomy

Jan. 14, 2014 Rise Set
Actual Time 7:21 AM EST 5:08 PM EST
Civil Twilight 6:52 AM EST 5:37 PM EST
Nautical Twilight 6:19 AM EST 6:09 PM EST
Astronomical Twilight 5:48 AM EST 6:41 PM EST
Moon 4:11 PM EST (1/14) 5:54 AM EST (1/14)
Length of Visible Light 10h 44m
Length of Day
9h 46m
Waxing Gibbous, 98% of the Moon is Illuminated
Jan 14
Waxing Gibbous
Jan 15
Full
Jan 24
Last Quarter
Jan 30
New
Feb 6
First Quarter

Hourly Weather History & Observations

Time (EST) Temp. Windchill Dew Point Humidity Pressure Visibility Wind Dir Wind Speed Gust Speed Precip Events Conditions
12:52 AM 53.1 °F - 37.0 °F 55% 29.91 in 10.0 mi South 8.1 mph - N/A   Clear
1:52 AM 53.1 °F - 37.9 °F 57% 29.89 in 10.0 mi SSW 8.1 mph - N/A   Clear
2:52 AM 51.1 °F - 41.0 °F 68% 29.87 in 9.0 mi South 8.1 mph - 0.01 in Rain Light Rain
3:52 AM 48.9 °F - 42.1 °F 77% 29.84 in 10.0 mi WSW 3.5 mph - 0.00 in Rain Light Rain
4:52 AM 45.0 °F 43.5 °F 41.0 °F 86% 29.84 in 10.0 mi WSW 3.5 mph - 0.00 in Rain Light Rain
4:59 AM 48.0 °F - 43.0 °F 83% 29.84 in 10.0 mi WSW 6.9 mph - 0.00 in Rain Light Rain
5:52 AM 48.9 °F - 44.1 °F 83% 29.84 in 8.0 mi SW 4.6 mph - 0.02 in Rain Light Rain
6:52 AM 48.9 °F - 45.0 °F 86% 29.82 in 8.0 mi South 4.6 mph - 0.02 in Rain Light Rain
7:52 AM 44.1 °F 42.5 °F 42.1 °F 93% 29.81 in 10.0 mi ESE 3.5 mph - 0.00 in Rain Light Rain
8:24 AM 44.1 °F - 43.0 °F 96% 29.79 in 3.0 mi Calm Calm - 0.00 in   Light Drizzle
8:52 AM 43.0 °F 39.5 °F 41.0 °F 93% 29.80 in 3.0 mi SE 5.8 mph - 0.00 in Rain Light Rain
9:38 AM 45.0 °F 42.6 °F 43.0 °F 93% 29.80 in 3.0 mi SE 4.6 mph - 0.01 in Rain Light Rain
9:52 AM 50.0 °F - 48.0 °F 93% 29.81 in 3.0 mi SSW 4.6 mph - 0.03 in Rain Light Rain
10:52 AM 50.0 °F - 48.0 °F 93% 29.77 in 3.0 mi South 5.8 mph - 0.04 in Rain Light Rain
11:52 AM 50.0 °F - 48.0 °F 93% 29.74 in 3.0 mi SSW 6.9 mph - 0.08 in Rain Light Rain
12:52 PM 50.0 °F - 48.0 °F 93% 29.71 in 4.0 mi WNW 11.5 mph - N/A Rain Light Rain
1:52 PM 48.9 °F - 46.0 °F 90% 29.73 in 5.0 mi WNW 12.7 mph - 0.04 in Rain Light Rain
2:52 PM 48.0 °F - 45.0 °F 89% 29.75 in 4.0 mi WNW 8.1 mph - 0.02 in Rain Light Rain
3:04 PM 48.0 °F - 45.0 °F 89% 29.75 in 5.0 mi NW 6.9 mph - 0.02 in Rain Light Rain
3:34 PM 48.0 °F - 45.0 °F 89% 29.76 in 5.0 mi NW 6.9 mph - 0.05 in Rain Light Rain
3:48 PM 48.2 °F - 44.6 °F 87% 29.73 in 10.0 mi NNW 6.9 mph - 0.06 in Rain Light Rain
3:52 PM 48.0 °F - 45.0 °F 89% 29.74 in 10.0 mi NNW 6.9 mph - 0.06 in Rain Light Rain
4:05 PM 46.9 °F - 45.0 °F 93% 29.77 in 10.0 mi WNW 6.9 mph - 0.00 in   Mostly Cloudy
4:52 PM 46.9 °F - 45.0 °F 93% 29.80 in 10.0 mi West 6.9 mph - 0.00 in   Mostly Cloudy
5:35 PM 46.9 °F - 44.1 °F 90% 29.82 in 10.0 mi West 6.9 mph - 0.00 in Rain Light Rain
5:48 PM 46.4 °F 42.4 °F 44.6 °F 93% 29.84 in 10.0 mi West 8.1 mph - 0.00 in   Mostly Cloudy
5:52 PM 46.9 °F - 44.1 °F 90% 29.85 in 10.0 mi West 9.2 mph - 0.00 in   Mostly Cloudy
6:52 PM 46.0 °F 41.9 °F 43.0 °F 89% 29.89 in 10.0 mi West 8.1 mph - N/A   Mostly Cloudy
7:52 PM 39.9 °F - 39.0 °F 97% 29.89 in 9.0 mi Calm Calm - N/A Fog Shallow Fog
8:52 PM 36.0 °F 32.1 °F 35.1 °F 97% 29.90 in 7.0 mi SW 4.6 mph - N/A Fog Shallow Fog
9:52 PM 43.0 °F 38.2 °F 41.0 °F 93% 29.92 in 5.0 mi SW 8.1 mph - N/A   Clear
10:17 PM 42.1 °F 38.4 °F 41.0 °F 96% 29.92 in 4.0 mi SW 5.8 mph - N/A   Partly Cloudy
10:29 PM 42.1 °F 39.2 °F 41.0 °F 96% 29.92 in 0.5 mi SW 4.6 mph - 0.00 in Fog Fog
10:52 PM 39.9 °F 37.8 °F 39.0 °F 97% 29.93 in 0.2 mi WSW 3.5 mph - 0.00 in Fog Fog
11:04 PM 39.0 °F 35.7 °F 37.9 °F 96% 29.93 in 1.0 mi SW 4.6 mph - N/A   Mist
11:17 PM 39.0 °F 35.7 °F 37.9 °F 96% 29.93 in 1.8 mi SW 4.6 mph - N/A   Scattered Clouds
11:25 PM 39.9 °F 35.8 °F 39.0 °F 97% 29.93 in 2.0 mi SW 5.8 mph - N/A   Scattered Clouds
11:33 PM 39.9 °F 35.8 °F 39.0 °F 97% 29.93 in 8.0 mi SW 5.8 mph - N/A   Scattered Clouds
11:52 PM 42.1 °F 37.1 °F 39.9 °F 92% 29.94 in 10.0 mi SW 8.1 mph - N/A   Scattered Clouds